Flag for Germany Weather past 2 weeks in Achern, Baden-Württemberg, Germany

Now
63 °F

Scattered showers. Broken clouds.


Feels Like: 63 °F
Forecast: 53 / 68 °F
Wind: 13 mph from Southwest

Location: Karlsruhe - Baden Wurttemberg

Current Time: Apr 25, 2015 at 3:19:00 PM

Latest Report: Apr 25, 2015 at 2:50 PM


Visibility: N/A

Pressure: 29.86 "Hg

Humidity: 64%

Dew point: 50 °F

Location of AchernLocation

Historic Weather in Achern — Graph

°F

Achern temperature yesterday

Maximum temperature yesterday: 72 °F (at 5:50 PM)
Minimum temperature yesterday: 36 °F (at 4:50 AM)
Average temperature yesterday: 57 °F

Past Weeks' High & Low Weather Summary

 TemperatureHumidityPressure
High79 °F (Apr 15, 3:50 PM)94% (Apr 12, 6:50 AM)30.45 "Hg (Apr 12, 6:50 AM)
Low36 °F (Apr 19, 6:50 AM)17% (Apr 10, 5:20 PM)29.83 "Hg (Apr 25, 4:50 AM)
Average57 °F49%30.16 "Hg
* Reported Apr 10 2:20 PM — Apr 25 2:20 PM, Achern, Weather by CustomWeather, © 2015

Note: Actual official high and low records may vary slightly from our data, if they occured in-between our weather recording intervals... More about our weather records

Advertising

Achern weather history for previous 24 hours

 ConditionsComfort  
Time TempWeatherWind HumidityBarometerVisibility
2:20 PM
Sat, Apr 25
63 °FSprinkles. Broken clouds.13 mph64%29.86 "HgN/A
1:50 PM63 °FSprinkles. Broken clouds.16 mph64%29.86 "HgN/A
1:20 PM63 °FSprinkles. Broken clouds.14 mph68%29.86 "HgN/A
12:50 PM63 °FSprinkles. Broken clouds.15 mph64%29.86 "HgN/A
12:20 PM64 °FSprinkles. Partly sunny.12 mph56%29.83 "HgN/A
11:50 AM64 °FPassing clouds.16 mph60%29.83 "HgN/A
11:20 AM63 °FSunny.17 mph59%29.86 "Hg10 mi
10:50 AM61 °FSunny.8 mph63%29.86 "Hg10 mi
10:20 AM57 °FPartly sunny.6 mph67%29.86 "HgN/A
9:50 AM55 °FDrizzle. Broken clouds.7 mph67%29.86 "HgN/A
9:20 AM55 °FPartly sunny.3 mph63%29.86 "HgN/A
8:50 AM52 °FDrizzle. Partly sunny.5 mph72%29.86 "HgN/A
8:20 AM52 °FSunny.6 mph72%29.86 "Hg10 mi
7:50 AM50 °FSunny.7 mph71%29.86 "Hg10 mi
7:20 AM48 °FSunny.6 mph76%29.86 "Hg10 mi
6:50 AM48 °FPassing clouds.5 mph71%29.86 "HgN/A
6:20 AM46 °FClear.3 mph76%29.83 "Hg10 mi
5:20 AM43 °FClear.5 mph93%29.83 "Hg10 mi
4:50 AM43 °FClear.3 mph93%29.83 "Hg10 mi
11:50 PM
Fri, Apr 24
50 °FClear.No wind62%29.89 "Hg10 mi
11:20 PM50 °FClear.1 mph67%29.89 "Hg10 mi
10:50 PM52 °FClear.No wind62%29.89 "Hg10 mi
10:20 PM54 °FClear.2 mph58%29.89 "Hg10 mi
9:50 PM57 °FClear.2 mph48%29.89 "Hg10 mi
9:20 PM61 °FSunny.2 mph39%29.89 "Hg10 mi
8:50 PM63 °FSunny.3 mph37%29.89 "Hg10 mi
8:20 PM66 °FSunny.6 mph30%29.89 "Hg10 mi
7:50 PM68 °FSunny.6 mph28%29.89 "Hg10 mi
7:20 PM68 °FSunny.6 mph28%29.89 "Hg10 mi
6:50 PM68 °FPassing clouds.5 mph30%29.89 "HgN/A
6:20 PM70 °FPassing clouds.5 mph23%29.89 "HgN/A
5:50 PM72 °FSunny.3 mph22%29.89 "Hg10 mi
5:20 PM70 °FPassing clouds.6 mph23%29.92 "HgN/A
4:50 PM70 °FPassing clouds.6 mph25%29.92 "HgN/A
4:20 PM70 °FPassing clouds.6 mph23%29.92 "HgN/A
3:50 PM70 °FSunny.5 mph25%29.92 "Hg10 mi
3:20 PM70 °FSunny.3 mph25%29.95 "Hg10 mi
Weather by CustomWeather, © 2015

See weather overviewHow to use our weather pages